Tracking 28794 objects as of 19-Apr-2024
HD Live streaming from Space Station
objects crossing your sky now

SCOUT X-1 DEB

Track SCOUT X-1 DEB now!
10-day predictions


NORAD ID: 4026
Int'l Code: 1961-004G
Perigee: 549.3 km
Apogee: 1,247.8 km
Inclination: 38.8 °
Period: 102.8 minutes
Semi major axis: 7269 km
RCS: 0.0614 m2 (small)
Launch date: February 16, 1961
Source: United States (US)
Launch site: WALLOPS ISLAND (WLPIS)

Note: This is SATELLITE DEBRIS
Your satellite tracking list
Your tracking list is empty




NASA's NSSDC Master Catalog

Two Line Element Set (TLE):
1 04026U 61004G   24110.56237442  .00024287  00000-0  58144-2 0  9991
2 04026  38.8251 156.9351 0480390 356.7509   3.0160 14.00691229 22053
Source of the keplerian elements: AFSPC